TimeCDT,TemperatureF,Dew PointF,Humidity,Sea Level PressureIn,VisibilityMPH,Wind Direction,Wind SpeedMPH,Gust SpeedMPH,PrecipitationIn,Events,Conditions,WindDirDegrees,DateUTC
12:53 AM,43.0,28.0,56,30.14,10.0,West,10.4,19.6,N/A,,Clear,280,2012-10-05 05:53:00
1:53 AM,42.1,28.9,60,30.16,10.0,West,12.7,-,N/A,,Clear,270,2012-10-05 06:53:00
3:53 AM,41.0,30.0,65,30.14,10.0,WNW,11.5,21.9,N/A,,Clear,290,2012-10-05 08:53:00
4:53 AM,39.9,28.9,65,30.14,10.0,WNW,13.8,23.0,N/A,,Clear,290,2012-10-05 09:53:00
5:53 AM,41.0,28.9,62,30.14,10.0,West,13.8,-,N/A,,Clear,280,2012-10-05 10:53:00
6:53 AM,41.0,28.9,62,30.14,10.0,West,13.8,-,N/A,,Scattered Clouds,280,2012-10-05 11:53:00
7:53 AM,41.0,27.0,57,30.14,10.0,West,17.3,23.0,N/A,,Clear,260,2012-10-05 12:53:00
8:53 AM,42.1,27.0,55,30.15,10.0,West,13.8,-,N/A,,Clear,280,2012-10-05 13:53:00
10:53 AM,46.9,23.0,39,30.14,10.0,West,17.3,-,N/A,,Clear,280,2012-10-05 15:53:00
12:53 PM,50.0,24.1,36,30.10,10.0,West,16.1,24.2,N/A,,Clear,280,2012-10-05 17:53:00
1:53 PM,52.0,24.1,34,30.08,10.0,WNW,15.0,20.7,N/A,,Clear,290,2012-10-05 18:53:00
2:53 PM,52.0,24.1,34,30.07,10.0,WNW,18.4,26.5,N/A,,Clear,300,2012-10-05 19:53:00
3:53 PM,50.0,24.1,36,30.08,10.0,West,21.9,-,N/A,,Clear,260,2012-10-05 20:53:00
4:53 PM,50.0,25.0,38,30.09,10.0,WNW,19.6,28.8,N/A,,Clear,290,2012-10-05 21:53:00
5:53 PM,48.0,25.0,41,30.08,10.0,WNW,18.4,27.6,N/A,,Scattered Clouds,300,2012-10-05 22:53:00
6:53 PM,46.9,26.1,44,30.09,10.0,NW,18.4,29.9,N/A,,Overcast,310,2012-10-05 23:53:00
7:53 PM,46.0,25.0,44,30.11,10.0,WNW,20.7,28.8,N/A,,Overcast,300,2012-10-06 00:53:00
8:53 PM,44.1,25.0,47,30.12,10.0,WNW,18.4,27.6,N/A,,Overcast,300,2012-10-06 01:53:00
9:53 PM,43.0,25.0,49,30.12,10.0,WNW,19.6,27.6,N/A,,Overcast,300,2012-10-06 02:53:00
10:53 PM,42.1,25.0,51,30.12,10.0,WNW,16.1,-,N/A,,Overcast,300,2012-10-06 03:53:00
11:53 PM,42.1,25.0,51,30.12,10.0,WNW,15.0,21.9,N/A,,Overcast,290,2012-10-06 04:53:00